Location: Holyhead Bay
(53.3667°N, 4.6667°W)
Time: 23:11:02
(UTC+00:00)

ADEOS Rocket - Pass Details

Date: 21 April 2021
Orbit: 859 x 1306 km, 98.7° (Epoch: 15 May)

Event Time Altitude Azimuth Distance (km) Brightness Sun altitude
Rises 00:37:15 0° 106° (ESE) 3,865 6.0 -24.6°
Reaches altitude 10° 00:40:18 10° 92° (E) 2,986 5.6 -24.6°
Maximum altitude 00:45:16 22° 45° (NE) 2,318 5.5 -24.5°
Drops below altitude 10° 00:50:34 10° 358° (N) 3,209 6.7 -24.4°
Sets 00:53:58 0° 345° (NNW) 4,232 7.4 -24.3°
